Location: Unspecified
(52.4292°N, 19.3359°E)
Time: 23:28:49
(UTC+02:00)

Altair - Pass Details

Date: 26 May 2024
Orbit: 1502 x 1682 km, 47.2° (Epoch: 19 June)

Event Time Altitude Azimuth Distance (km) Brightness Sun altitude
Rises 08:32:07 0° 197° (SSW) 4,769 10.0 33.7°
Reaches altitude 10° 08:35:51 10° 185° (S) 3,817 9.7 34.2°
Maximum altitude 08:43:16 25° 134° (SE) 2,843 10.2 35.4°
Drops below altitude 10° 08:50:52 10° 85° (E) 3,923 10.8 36.5°
Sets 08:54:45 0° 73° (ENE) 4,928 10.9 37.1°
